Location: Piotrkow Trybunalski
(51.4000°N, 19.6830°E)
Time: 05:22:59
(UTC+02:00)

A-11 Canister half - Pass Details

Date: 01 February 2023
Orbit: 1526 x 1682 km, 47.3° (Epoch: 25 March)

Event Time Altitude Azimuth Distance (km) Brightness Sun altitude
Rises 10:44:15 0° 280° (W) 4,702 11.3 19.8°
Reaches altitude 10° 10:47:19 10° 276° (W) 3,731 10.9 19.9°
Maximum altitude 10:56:27 57° 202° (SSW) 1,818 10.2 20.3°
Drops below altitude 10° 11:05:52 10° 127° (SE) 3,838 12.0 20.7°
Sets 11:09:05 0° 123° (ESE) 4,843 12.3 20.8°
